Weather History for KFCM - September, 2013

Change the Weather History Date:

Monday, September 16, 2013

  Actual Average Record
Temperature  
Mean Temperature 56 °F -  
Max Temperature 68 °F 71 °F 86 °F (2002)
Min Temperature 45 °F 51 °F 39 °F (2014)
Degree Days  
Heating Degree Days 10    
Growing Degree Days 6 (Base 50)    
Moisture  
Dew Point 42 °F    
Average Humidity 63    
Maximum Humidity 86    
Minimum Humidity 37    
Precipitation  
Precipitation 0.00 in - - ()
Sea Level Pressure  
Sea Level Pressure 30.34 in    
Wind  
Wind Speed 6 mph (East)    
Max Wind Speed 10 mph    
Max Gust Speed -    
Visibility 10 miles    
Events      
Averages and records for this station are not official NWS values.
T = Trace of Precipitation, MM = Missing Value Source: NWS Daily Summary

Daily Weather History Graph

Daily Weather History Graph

Search for Another Location

Airport or City:

Trip Planner

Search our weather history database for the weather conditions in past years. The results will help you decide how hot, cold, wet, or windy it might be!

Date:

Astronomy

Sep. 16, 2013 Rise Set
Actual Time 6:54 AM CDT 7:22 PM CDT
Civil Twilight 6:24 AM CDT 7:51 PM CDT
Nautical Twilight 5:50 AM CDT 8:26 PM CDT
Astronomical Twilight 5:14 AM CDT 9:01 PM CDT
Moon 5:36 PM CDT (9/16) 3:34 AM CDT (9/16)
Length of Visible Light 13h 26m
Length of Day
12h 28m
Waxing Gibbous, 90% of the Moon is Illuminated
Sep 16
Waxing Gibbous
Sep 19
Full
Sep 26
Last Quarter
Oct 4
New
Oct 11
First Quarter

Hourly Weather History & Observations

Time (CDT) Temp. Windchill Dew Point Humidity Pressure Visibility Wind Dir Wind Speed Gust Speed Precip Events Conditions
12:53 AM 48.9 °F - 44.1 °F 83% 30.33 in 10.0 mi NNE 3.5 mph - N/A   Clear
1:53 AM 48.9 °F - 43.0 °F 80% 30.34 in 10.0 mi NE 5.8 mph - N/A   Clear
2:53 AM 48.0 °F - 42.1 °F 80% 30.35 in 10.0 mi NE 4.6 mph - N/A   Clear
3:53 AM 46.9 °F - 41.0 °F 80% 30.36 in 10.0 mi NE 4.6 mph - N/A   Clear
4:53 AM 46.0 °F 43.9 °F 41.0 °F 83% 30.37 in 10.0 mi NE 4.6 mph - N/A   Clear
5:53 AM 45.0 °F 43.5 °F 39.9 °F 82% 30.38 in 10.0 mi ENE 3.5 mph - N/A   Clear
6:53 AM 45.0 °F 41.8 °F 41.0 °F 86% 30.40 in 10.0 mi ENE 5.8 mph - N/A   Clear
7:53 AM 46.0 °F 41.9 °F 41.0 °F 83% 30.40 in 10.0 mi East 8.1 mph - N/A   Clear
8:53 AM 48.9 °F - 42.1 °F 77% 30.40 in 10.0 mi East 9.2 mph - N/A   Clear
9:53 AM 53.1 °F - 43.0 °F 69% 30.41 in 10.0 mi SE 10.4 mph - N/A   Clear
10:53 AM 55.9 °F - 43.0 °F 62% 30.41 in 10.0 mi ESE 4.6 mph - N/A   Clear
11:53 AM 59.0 °F - 43.0 °F 55% 30.41 in 10.0 mi SE 6.9 mph - N/A   Clear
12:53 PM 62.1 °F - 44.1 °F 52% 30.39 in 10.0 mi ESE 6.9 mph - N/A   Clear
1:53 PM 64.0 °F - 43.0 °F 46% 30.38 in 10.0 mi South 5.8 mph - N/A   Clear
2:53 PM 66.0 °F - 43.0 °F 43% 30.35 in 10.0 mi Variable 6.9 mph - N/A   Clear
3:53 PM 66.9 °F - 42.1 °F 40% 30.32 in 10.0 mi ESE 6.9 mph - N/A   Clear
4:53 PM 66.9 °F - 41.0 °F 39% 30.30 in 10.0 mi East 9.2 mph - N/A   Clear
5:53 PM 66.9 °F - 39.9 °F 37% 30.28 in 10.0 mi SE 9.2 mph - N/A   Clear
6:53 PM 64.0 °F - 41.0 °F 43% 30.27 in 10.0 mi ESE 5.8 mph - N/A   Clear
7:53 PM 61.0 °F - 42.1 °F 50% 30.26 in 10.0 mi East 6.9 mph - N/A   Clear
8:53 PM 59.0 °F - 41.0 °F 51% 30.27 in 10.0 mi ESE 8.1 mph - N/A   Clear
9:53 PM 55.9 °F - 41.0 °F 57% 30.26 in 10.0 mi ESE 6.9 mph - N/A   Clear
10:53 PM 55.0 °F - 41.0 °F 59% 30.26 in 10.0 mi SE 8.1 mph - N/A   Clear
11:53 PM 52.0 °F - 42.1 °F 69% 30.26 in 10.0 mi SE 6.9 mph - N/A   Clear